| time (UTC) | temp F | wind direction | speed MPH | gust MPH | rain 1hr in | rain 24hr in | rain mn in | humidity % | barometer mb |
| 20260831000052 | 64 | 0 | 1.0 | 4.0 | 0.00 | 0.00 | 0.00 | 94 | 1018.1 |
| 20260830234553 | 64 | 280 | 1.0 | 6.0 | 0.00 | 0.00 | 0.00 | 94 | 1017.9 |
| 20260830233050 | 64 | 0 | 0.0 | 5.0 | 0.00 | 0.00 | 0.00 | 93 | 1017.8 |
| 20260830231600 | 65 | 344 | 0.0 | 4.0 | 0.00 | 0.00 | 0.00 | 91 | 1017.5 |
| 20260830230050 | 65 | 0 | 0.0 | 4.0 | 0.00 | 0.00 | 0.00 | 90 | 1017.4 |
| 20260830224606 | 65 | 298 | 2.0 | 8.0 | 0.00 | 0.00 | 0.00 | 89 | 1017.5 |
| 20260830223148 | 66 | 281 | 1.0 | 6.0 | 0.00 | 0.00 | 0.00 | 88 | 1017.7 |
| 20260830221548 | 67 | 279 | 2.0 | 6.0 | 0.00 | 0.00 | 0.00 | 86 | 1017.9 |
| 20260830220055 | 67 | 0 | 1.0 | 8.0 | 0.00 | 0.00 | 0.00 | 85 | 1017.9 |
| 20260830214549 | 68 | 288 | 2.0 | 8.0 | 0.00 | 0.00 | 0.00 | 83 | 1017.8 |
| 20260830213043 | 69 | 288 | 3.0 | 9.0 | 0.00 | 0.00 | 0.00 | 82 | 1017.7 |
| 20260830211548 | 70 | 286 | 2.0 | 8.0 | 0.00 | 0.00 | 0.00 | 79 | 1017.4 |
| 20260830210100 | 71 | 277 | 1.0 | 6.0 | 0.00 | 0.00 | 0.00 | 77 | 1017.4 |
| 20260830204550 | 71 | 0 | 0.0 | 8.0 | 0.00 | 0.00 | 0.00 | 76 | 1017.3 |
| 20260830203053 | 72 | 0 | 0.0 | 4.0 | 0.00 | 0.00 | 0.00 | 77 | 1017.3 |
| 20260830201550 | 73 | 0 | 1.0 | 6.0 | 0.00 | 0.00 | 0.00 | 75 | 1017.2 |
| 20260830200105 | 74 | 81 | 1.0 | 6.0 | 0.00 | 0.00 | 0.00 | 73 | 1017.3 |
| 20260830194601 | 75 | 0 | 1.0 | 7.0 | 0.00 | 0.00 | 0.00 | 71 | 1017.2 |
| 20260830193053 | 76 | 157 | 1.0 | 9.0 | 0.00 | 0.00 | 0.00 | 70 | 1017.1 |
| 20260830191557 | 77 | 202 | 2.0 | 8.0 | 0.00 | 0.00 | 0.00 | 70 | 1017.1 |
| 20260830190051 | 75 | 0 | 0.0 | 6.0 | 0.00 | 0.00 | 0.00 | 71 | 1017.4 |
| 20260830184553 | 75 | 0 | 1.0 | 5.0 | 0.00 | 0.00 | 0.00 | 71 | 1017.7 |
| 20260830183053 | 76 | 101 | 1.0 | 6.0 | 0.00 | 0.00 | 0.00 | 71 | 1017.7 |
| 20260830181552 | 75 | 266 | 1.0 | 7.0 | 0.00 | 0.00 | 0.00 | 74 | 1017.9 |
| 20260830180049 | 74 | 271 | 1.0 | 4.0 | 0.00 | 0.00 | 0.00 | 75 | 1018.1 |
| 20260830174554 | 73 | 0 | 0.0 | 5.0 | 0.00 | 0.00 | 0.00 | 76 | 1018.2 |
| 20260830173106 | 72 | 0 | 0.0 | 4.0 | 0.00 | 0.00 | 0.00 | 76 | 1018.2 |
| 20260830171551 | 72 | 0 | 0.0 | 4.0 | 0.00 | 0.00 | 0.00 | 73 | 1018.4 |
| 20260830170056 | 71 | 0 | 0.0 | 3.0 | 0.00 | 0.00 | 0.00 | 73 | 1018.6 |
| 20260830164559 | 72 | 0 | 1.0 | 5.0 | 0.00 | 0.00 | 0.00 | 73 | 1018.7 |
| 20260830163057 | 72 | 0 | 0.0 | 3.0 | 0.00 | 0.00 | 0.00 | 71 | 1018.8 |
| 20260830161611 | 72 | 0 | 0.0 | 0.0 | 0.00 | 0.00 | 0.00 | 74 | 1018.8 |
| 20260830160049 | 71 | 0 | 0.0 | 1.0 | 0.00 | 0.00 | 0.00 | 75 | 1019.2 |
| 20260830154550 | 70 | 0 | 0.0 | 0.0 | 0.00 | 0.00 | 0.00 | 74 | 1019.5 |
| 20260830153053 | 70 | 0 | 0.0 | 0.0 | 0.00 | 0.00 | 0.00 | 76 | 1019.6 |
| 20260830151550 | 69 | 0 | 0.0 | 0.0 | 0.00 | 0.00 | 0.00 | 79 | 1019.7 |
| 20260830150107 | 68 | 0 | 0.0 | 0.0 | 0.00 | 0.00 | 0.00 | 78 | 1019.7 |
| 20260830144545 | 68 | 0 | 0.0 | 0.0 | 0.00 | 0.00 | 0.00 | 81 | 1019.6 |
| 20260830143052 | 68 | 0 | 0.0 | 0.0 | 0.00 | 0.00 | 0.00 | 79 | 1019.6 |
| 20260830141549 | 67 | 0 | 0.0 | 0.0 | 0.00 | 0.00 | 0.00 | 82 | 1019.6 |
| 20260830140049 | 67 | 0 | 0.0 | 0.0 | 0.00 | 0.00 | 0.00 | 80 | 1019.7 |
| 20260830134554 | 66 | 0 | 0.0 | 0.0 | 0.00 | 0.00 | 0.00 | 85 | 1019.9 |
| 20260830133049 | 65 | 0 | 0.0 | 0.0 | 0.00 | 0.00 | 0.00 | 88 | 1020.0 |
| 20260830131604 | 64 | 0 | 0.0 | 0.0 | 0.00 | 0.00 | 0.00 | 90 | 1020.1 |
| 20260830130050 | 63 | 0 | 0.0 | 0.0 | 0.00 | 0.00 | 0.00 | 91 | 1020.0 |
| 20260830124543 | 62 | 0 | 0.0 | 0.0 | 0.00 | 0.00 | 0.00 | 94 | 1020.4 |
| 20260830123051 | 60 | 0 | 0.0 | 0.0 | 0.00 | 0.00 | 0.00 | 95 | 1020.5 |
| 20260830121552 | 59 | 0 | 0.0 | 0.0 | 0.00 | 0.00 | 0.00 | 96 | 1020.3 |
| 20260830120049 | 58 | 0 | 0.0 | 0.0 | 0.00 | 0.00 | 0.00 | 97 | 1020.3 |
| 20260830114548 | 58 | 0 | 0.0 | 0.0 | 0.00 | 0.00 | 0.00 | 97 | 1020.4 |
| 20260830113051 | 57 | 0 | 0.0 | 0.0 | 0.00 | 0.00 | 0.00 | 97 | 1020.5 |
| 20260830111553 | 56 | 0 | 0.0 | 0.0 | 0.00 | 0.00 | 0.00 | 97 | 1020.6 |
| 20260830110049 | 56 | 0 | 0.0 | 0.0 | 0.00 | 0.00 | 0.00 | 97 | 1020.6 |
| 20260830104542 | 55 | 0 | 0.0 | 0.0 | 0.00 | 0.00 | 0.00 | 97 | 1020.5 |
| 20260830103053 | 55 | 0 | 0.0 | 0.0 | 0.00 | 0.00 | 0.00 | 97 | 1020.5 |
| 20260830101548 | 55 | 0 | 0.0 | 0.0 | 0.00 | 0.00 | 0.00 | 97 | 1020.5 |
| 20260830100048 | 55 | 0 | 0.0 | 0.0 | 0.00 | 0.00 | 0.00 | 96 | 1020.5 |
| 20260830094551 | 55 | 0 | 0.0 | 0.0 | 0.00 | 0.00 | 0.00 | 96 | 1020.6 |
| 20260830093051 | 55 | 0 | 0.0 | 0.0 | 0.00 | 0.00 | 0.00 | 96 | 1020.6 |
| 20260830091552 | 55 | 0 | 0.0 | 0.0 | 0.00 | 0.00 | 0.00 | 96 | 1020.6 |
| 20260830090044 | 55 | 0 | 0.0 | 0.0 | 0.00 | 0.00 | 0.00 | 96 | 1020.5 |
| 20260830084548 | 55 | 0 | 0.0 | 0.0 | 0.00 | 0.00 | 0.00 | 96 | 1020.6 |
| 20260830083053 | 55 | 0 | 0.0 | 0.0 | 0.00 | 0.00 | 0.00 | 96 | 1020.6 |
| 20260830081551 | 55 | 0 | 0.0 | 0.0 | 0.00 | 0.00 | 0.00 | 96 | 1020.7 |
| 20260830080056 | 55 | 0 | 0.0 | 0.0 | 0.00 | 0.00 | 0.00 | 96 | 1020.7 |
| 20260830074559 | 55 | 0 | 0.0 | 0.0 | 0.00 | 0.00 | 0.00 | 96 | 1020.7 |
| 20260830073054 | 55 | 0 | 0.0 | 0.0 | 0.00 | 0.00 | 0.00 | 96 | 1020.7 |
| 20260830071556 | 54 | 0 | 0.0 | 0.0 | 0.00 | 0.00 | 0.00 | 96 | 1020.6 |
| 20260830070048 | 54 | 0 | 0.0 | 0.0 | 0.00 | 0.00 | 0.00 | 96 | 1020.6 |
| 20260830064610 | 54 | 0 | 0.0 | 0.0 | 0.00 | 0.00 | 0.00 | 96 | 1020.6 |
| 20260830063049 | 54 | 0 | 0.0 | 0.0 | 0.00 | 0.00 | 0.00 | 95 | 1020.6 |
| 20260830061548 | 54 | 0 | 0.0 | 0.0 | 0.00 | 0.00 | 0.00 | 95 | 1020.8 |
| 20260830060055 | 54 | 0 | 0.0 | 0.0 | 0.00 | 0.00 | 0.00 | 95 | 1021.1 |
| 20260830054550 | 54 | 0 | 0.0 | 0.0 | 0.00 | 0.00 | 0.00 | 95 | 1021.1 |
| 20260830053048 | 54 | 0 | 0.0 | 0.0 | 0.00 | 0.00 | 0.00 | 95 | 1021.0 |
| 20260830051554 | 54 | 0 | 0.0 | 0.0 | 0.00 | 0.00 | 0.00 | 94 | 1021.1 |
| 20260830050050 | 55 | 0 | 0.0 | 0.0 | 0.00 | 0.00 | 0.00 | 94 | 1021.0 |
| 20260830044607 | 55 | 0 | 0.0 | 0.0 | 0.00 | 0.00 | 0.00 | 94 | 1020.9 |
| 20260830043053 | 55 | 0 | 0.0 | 0.0 | 0.00 | 0.00 | 0.00 | 94 | 1020.9 |
| 20260830041608 | 55 | 0 | 0.0 | 0.0 | 0.00 | 0.00 | 0.00 | 94 | 1020.8 |
| 20260830040053 | 55 | 0 | 0.0 | 0.0 | 0.00 | 0.00 | 0.00 | 94 | 1020.8 |
| 20260830034555 | 55 | 0 | 0.0 | 0.0 | 0.00 | 0.00 | 0.00 | 93 | 1020.9 |
| 20260830033057 | 55 | 0 | 0.0 | 0.0 | 0.00 | 0.00 | 0.00 | 92 | 1021.2 |
| 20260830031548 | 55 | 0 | 0.0 | 0.0 | 0.00 | 0.00 | 0.00 | 92 | 1021.0 |
| 20260830030050 | 56 | 0 | 0.0 | 0.0 | 0.00 | 0.00 | 0.00 | 92 | 1021.0 |
| 20260830024607 | 56 | 0 | 0.0 | 0.0 | 0.00 | 0.00 | 0.00 | 91 | 1021.1 |
| 20260830023048 | 56 | 0 | 0.0 | 0.0 | 0.00 | 0.00 | 0.00 | 91 | 1021.1 |
| 20260830021547 | 57 | 0 | 0.0 | 0.0 | 0.00 | 0.00 | 0.00 | 90 | 1021.1 |
| 20260830020106 | 57 | 0 | 0.0 | 0.0 | 0.00 | 0.00 | 0.00 | 89 | 1021.1 |
| 20260830014556 | 58 | 0 | 0.0 | 0.0 | 0.00 | 0.00 | 0.00 | 88 | 1020.9 |
| 20260830013110 | 58 | 0 | 0.0 | 0.0 | 0.00 | 0.00 | 0.00 | 86 | 1021.0 |
| 20260830011542 | 59 | 0 | 0.0 | 0.0 | 0.00 | 0.00 | 0.00 | 86 | 1021.2 |
| 20260830010051 | 59 | 0 | 0.0 | 0.0 | 0.00 | 0.00 | 0.00 | 85 | 1021.1 |
| 20260830004548 | 60 | 0 | 0.0 | 0.0 | 0.00 | 0.00 | 0.00 | 84 | 1020.8 |
| 20260830003049 | 61 | 0 | 0.0 | 0.0 | 0.00 | 0.00 | 0.00 | 80 | 1020.7 |
| 20260830001544 | 63 | 0 | 0.0 | 0.0 | 0.00 | 0.00 | 0.00 | 78 | 1020.4 |